Location: Cincinnati Observatory Center
(39.1389°N, 84.4225°W)
Time: 02:17:50
(UTC-04:00)

HST - Visible Passes

Search period start: 25 October 2014 00:00
Search period end: 03 November 2014 23:00
Orbit: 546 x 550 km, 28.5° (Epoch: 24 October)

Date Brightness Start Highest point End Pass type
(mag) Time Alt. Az. Time Alt. Az. Time Alt. Az.
25 Oct 3.3 20:49:46 10° SSW 20:50:43 13° S 20:50:43 13° S visible
26 Oct 3.0 20:42:05 10° SSW 20:43:54 16° S 20:43:54 16° S visible
27 Oct 2.8 20:34:29 10° SW 20:37:03 18° S 20:37:03 18° S visible
28 Oct 2.7 20:26:58 10° SW 20:29:54 19° S 20:30:11 18° S visible
29 Oct 2.7 20:19:31 10° SW 20:22:30 19° S 20:23:18 18° SSE visible
30 Oct 2.8 20:12:07 10° SW 20:15:04 19° S 20:16:25 16° SSE visible
31 Oct 2.9 20:04:46 10° SW 20:07:39 18° S 20:09:34 14° SSE visible
01 Nov 3.1 19:57:29 10° SW 20:00:12 17° S 20:02:46 11° SSE visible
02 Nov 3.2 18:50:16 10° SW 18:52:45 15° S 18:55:13 10° SSE visible
03 Nov 3.4 18:43:11 10° SW 18:45:17 14° SSW 18:47:22 10° SSE visible
